[Date Prev][Date Next][Thread Prev][Thread Next][Date Index][Thread Index]
[jamsat-news:1055] jas2info #127
=========================   ºÇ¿·¾ðÊó   ==============================
        Last updated ¡§Sat.2£·-Mar.-1999 14:30 (JST) ¡ô127
====================================================================
   
     ±ÒÀ±¾ðÊ󡡣ƣϥ·¥ê¡¼¥º¤Îµ°Æ»Í×ÁÇ¡¢¥Æ¥ì¥á¥È¥ê¡¢£Ñ£Ó£Ï¤Î¾õ¶·Åù¤ò
   ¤Þ¤È¤á¤Æ¤ß¤Þ¤·¤¿¡¥
  1¡Ë  £Æ£Ï¡Ý£²£¹¡Ê¤Õ¤¸£³¹æ¡Ë¤Ï£³·î£²£·Æü¡ÊÅÚ¡Ë£±£³¡§£²£³¡Ê£Ê£Ó£Ô¡Ë¤Î¥Ñ¥¹
     ¤Ç¤Ï£Æ£Í¤Î¡Ö¥Û¡¼¥Û¥±¥¥ç This is JAS¡Ý£²¡×¤Èòô¤ÎÌĤÀ¼¡¢½÷À¤Î¥á¥Ã¥»
     ¡¼¥¸¤¬¥Ç¥¸¥È¡¼¥«¤Çή¤ì¤Æ¤¤¤Þ¤·¤¿¡¥¼þÇÈ¿ô¤Ï¤¤¤Ä¤â¤Î¤è¤¦¤Ë£´£³£µ.£¹£±£¸
     £Í£È£ú¤è¤ê£´£³£µ.£¹£°£³£Í£È£ú¤Þ¤Ç¤Ç¤·¤¿¡¥¿®¹æ¤ÏÎ϶¯¤¯£Ò£Ó£µ£¹¡Ü£²£°
     £ä£â¤Ç°ÂÄꤷ¤ÆÊ¹¤³¤¨¤Þ¤·¤¿¡¥
       
 ¢£ µ°Æ»Í×ÁÇ£±¡§¡Öjamsat¡¼keps¡§£¸£·£³¡×¤è¤ê
                 SB KEPS @ AMSAT  $ORB99085.N
                 2Line Orbital Elements 99085.AMSAT
  HR AMSAT ORBITAL ELEMENTS FOR AMATEUR SATELLITES IN NASA FORMAT
  FROM WA5QGD FORT WORTH,TX March 26, 1999
  SEND SUBSCRIBE/UNSUBSCRIBE TO majordomo@amsat.org ONLY
  BID: ORB99085.N
 DECODE 2-LINE ELSETS WITH THE FOLLOWING KEY:
 1 AAAAAU 00  0  0 BBBBB.BBBBBBBB  .CCCCCCCC  00000-0  00000-0 0  DDDZ
 2 AAAAA EEE.EEEE FFF.FFFF GGGGGGG HHH.HHHH III.IIII JJ.JJJJJJJJKKKKKZ
 KEY: A-CATALOGNUM B-EPOCHTIME C-DECAY D-ELSETNUM E-INCLINATION F-RAAN
 G-ECCENTRICITY H-ARGPERIGEE I-MNANOM J-MNMOTION K-ORBITNUM Z-CHECKSUM
 TO ALL RADIO AMATEURS BT
   FO-29
  1 24278U 96046B   99082.92540528 -.00000014  00000-0  24869-4 0 02432
  2 24278 098.5495 045.4998 0351238 315.1122 042.2097 13.52663816128287
   
 ¢£ µ°Æ»Í×ÁÇ£²¡§¡Öjamsat¡¼keps¡§£¸£·£´¡×¤è¤ê
                 SB KEPS @ AMSAT  $ORB99085.O
                 Orbital Elements  99085.OSCAR
  HR AMSAT ORBITAL ELEMENTS FOR OSCAR SATELLITES
  FROM WA5QGD FORT WORTH,TX March 26, 1999
  SEND SUBSCRIBE/UNSUBSCRIBE TO majordomo@amsat.org ONLY
  BID: ORB99085.O
  TO ALL RADIO AMATEURS BT
  
  Satellite: FO-29
 Catalog number: 24278
 Epoch time:      99082.92540528
 Element set:    0243
 Inclination:      098.5495 deg
 RA of node:       045.4998 deg
 Eccentricity:    0.0351238
 Arg of perigee:   315.1122 deg
 Mean anomaly:     042.2097 deg
 Mean motion:   13.52663816 rev/day
 Decay rate:       -1.4e-07 rev/day^2
 Epoch rev:           12828
 Checksum:              325
 -----------------------------------------------------------
 
 ¡ö·×»»½èÍý¤Ï OFFICE 97 ¤ò»ÈÍÑ¡¥ 
===============================================================================
  £²¡Ë£Æ£Ï¡Ý£²£°¡Ê¤Õ¤¸2¹æ¡Ë¤Î£Ã£×¥Æ¥ì¥á¥È¥ê¤Ï£³·î£²£´Æü¡Ê¿å¡Ë£±£¸¡§£°£·¡Ê£Ê£Ó£Ô¡Ë¤Î
     ¥Ñ¥¹¤Ç¤Ï¥Æ¥ì¥á¥È¥ê¡¼¤¬Ã±°ì¥È¡¼¥ó¤ÎϢ³²»¤«¤éÓ¹¤ê¤òȼ¤Ã¤¿Ï¢Â³²»¡¢¤µ¤é¤Ë¤æ¤é¤®¤Î
     ¤¢¤ë¿®¹æ¤Ë¤Ê¤ê¡¢¤¤¤Þ¤Þ¤Ç¤è¤ê¼ã´³¿®¹æ¤¬¼å¤¯¤Ê¤Ã¤Æ¤¤¤Þ¤·¤¿¡¥
---------------------------------------------------------------------------
 ¢£ µ°Æ»Í×ÁÇ£± ¡§½Ðŵ¤Ï¡Ö¤Õ¤¸£³¹æ¡×¤ËƱ¤¸¡¥ 
  
  FO-20
  1 20480U 90013C   99083.12069812 -.00000045  00000-0 -25383-4 0 01320
  2 20480 099.0336 294.0103 0540434 357.4404 002.3956 12.83250316427427
 
 ¢£ µ°Æ»Í×ÁÇ£² ¡§½Ðŵ¤Ï¡Ö¤Õ¤¸£³¹æ¡×¤ËƱ¤¸¡¥  
               
 Satellite: FO-20
 Catalog number: 20480
 Epoch time:      99083.12069812
 Element set:    0132
 Inclination:      099.0336 deg
 RA of node:       294.0103 deg
 Eccentricity:    0.0540434
 Arg of perigee:   357.4404 deg
 Mean anomaly:     002.3956 deg
 Mean motion:   12.83250316 rev/day
 Decay rate:       -4.5e-07 rev/day^2
 Epoch rev:           42742
 Checksum:              272
 
  ====================    FO-20¤Î£Ñ£Ó£Ï¤Î¾õ¶· ==========================
  =====================================================================
 £³¡Ë£Ê£Á£Ò£Ì ¤Î¥Û¡¼¥à¥Ú¡¼¥¸¤Ë¿·¤·¤¤±¿ÍÑÄɲÃͽÄ꤬µºÜ¤µ¤ì¤Æ¤¤¤Þ¤·¤¿¤Î¤Ç¤´¾Ò²ð¤·¤Þ¤¹¡¥
       ¡Ê http://www.jarl.or.jp/Japanese/3_Fuji/uy.htm ¡Ë
        ¢£ ¤Õ¤¸£³¹æ¡¿£Æ£Ï¡Ý£²£¹ ¢£  
  
  ¤Õ¤¸£³¹æ¡Ê£Ê£Á£Ó¡Ý£²¡Ë¡¡±¿ÍÑͽÄê
  ¡¡¡ö¡ö¡ö¡¡±¿ÍÑÆüÄø¤Ë¤Ä¤¤¤Æ¡¡¡ö¡ö¡ö
     £³·î£±£¹Æü¡¡¡Á¡¡£³·î£²£¹Æü¡¡¡¡¡¡¡¡ ¥Ç¥¸¥È¡¼¥«±¿Íѡʡ§£Æ£Í²»À¼¥á¥Ã¥»¡¼¥¸Á÷¿®¡Ë
¡¡¡¡ £³·î£²£¹Æü¡¡¡Á¡¡£´·î¡¡£µÆü¡¡¡¡¡¡¡¡ ¥¢¥Ê¥í¥°·Ï±¿ÍÑ
¡¡¡¡ £´·î¡¡£µÆü¡¡¡Á¡¡£´·î£±£²Æü¡¡¡¡¡¡¡¡ ¥Ç¥¸¥¿¥ë·Ï1200bps¥á¡¼¥ë¥Ü¥Ã¥¯¥¹±¿ÍÑ¡¡¡¡
¡¡¡¡ £´·î£±£²Æü¡¡¡Á¡¡£´·î£²£·Æü¡¡¡¡¡¡¡¡ ¥¢¥Ê¥í¥°·Ï±¿ÍÑ
   ¡ù£´·î£²£¸Æü  ¡Á  £µ·î  £¶Æü¡¡¡¡¡¡  ¥Ç¥¸¥È¡¼¥«±¿Íѡʡ§£Æ£Í²»À¼¥á¥Ã¥»¡¼¥¸Á÷¿®¡Ë
¡¡¡ö¡¡±¿ÍÑÆüÄø¤ÎÊѹ¹¤Ë¤Ä¤¤¤Æ¤â¾Ü¤·¤¯±ÜÍ÷¤Ç¤¤ë¤è¤¦¤Ë¤Ê¤Ã¤Æ¤¤¤Þ¤¹¤Î¤Ç»²¾È²¼¤µ¤¤¡¥
        ¢£ ¤Õ¤¸£²¹æ¡¿£Æ£Ï¡Ý£²£° ¢£  ¡¡   
            ¡Ö¤Õ¤¸£²¹æ¡×¡¡¸½¶·                                                                                               
   JAS-1b/FO-20¡Ê¤Õ¤¸£²¹æ¡Ë¤ÎÉÔ¶ñ¹çȯÀ¸¤Ë¤Ä¤¤¤Æ
    JAS-1b¡Ê¤Õ¤¸£²¹æ¡Ë¤Î£Ã£×¥Æ¥ì¥á¥È¥ê¿®¹æ¤Ë¡¤£±£¹£¹£·Ç¯£±£°·î£±£²Æü£±£²»þ
 ¡Ê£Ê£Ó£Ô¡Ë¤ÎÆüËܾå¶õÄ̲á»þ¡¤£³·å¤Î¿ô»ú¤¬·«¤êÊÖ¤µ¤ì¤ë¤Ï¤º¤¬£³¸Ä¤ÎĹ²»¤Î
  ·«¤êÊÖ¤·¤È¤Ê¤Ã¤Æ¤¤¤ë¤È¤¤¤¦°Û¾ï¤¬È¯¸«¤µ¤ì¤Þ¤·¤¿¡£¤³¤ÎÉÔ¶ñ¹ç¤Ï¼¡¤ÎÄ̲á»þ
  ¤«¤é¤Ï²óÉü¤·¤Æ¤¤¤Þ¤·¤¿¤¬£±£³Æü£±£µ»þ£²£°Ê¬¤ÎÄ̲á»þ¤ËºÆ¤Ó´Ñ¬¤µ¤ì¤Þ¤·¤¿¡£
  ±ÒÀ±¤Î¥¢¥Ê¥í¥°·ÏÃæ·Ñ¥â¡¼¥Éưºî¤Ï°Û¾ï¤¬Ìµ¤¯¡¤Àµ¾ï»þ¤Î¥Æ¥ì¥á¥È¥êÆâÍÆ¤«¤é¤Ï
  ±ÒÀ±¤Îưºî¤Ë°Û¾ï¤Ïǧ¤á¤é¤ì¤Þ¤»¤ó¡£½¾¤Ã¤Æ¡¤Ä¾¤Á¤Ë±ÒÀ±¤Î¥ß¥Ã¥·¥ç¥ó¤Ë±Æ¶Á¤¹
  ¤ë¤³¤È¤Ï̵¤¤¤ÈͽÁÛ¤µ¤ì¤Þ¤¹¤Î¤Ç¡¤ÅöÌ̤ϥ¢¥Ê¥í¥°·ÏÃæ·Ñ¥â¡¼¥É¤ò·Ñ³¤·¤Þ¤¹¡£
  ±ÒÀ±¤Ï´û¤ËÂǤÁ¾å¤²¤Æ¤«¤é£·Ç¯£¸¥ö·î¤ò·Ð¤Æ¤ª¤ê¤Þ¤¹¤Î¤Ç¡¤º£¸å¤Ï´Æ»ë¤ò¶¯²½¤¹
  ¤ëͽÄê¤Ç¤¹¡£¥¢¥Þ¥Á¥å¥¢³Æ°Ì¤Î¥ì¥Ý¡¼¥È¤ò¤ªÂÔ¤Á¤·¤Þ¤¹¡¥   
  
  °Ê¾å  http://www.jarl.or.jp/Japanese/3_Fuji/fuji.htm
                                           
   =============   JAS-2 ¡Ê¤Õ¤¸£³¹æ¡Ë¤È¸½ºß¤Þ¤Ç¤Î¾ðÊó   ===========  
  £Á¡¥ÅÅÏäˤè¤ë¤Õ¤¸£³¹æ¤Î±¿ÍѾðÊó
      ¼ÒÃÄË¡¿ÍÆüËÜ¥¢¥Þ¥Á¥å¥¢Ï¢ÌÁ¤Ë¤è¤ë¥µ¡¼¥Ó¥¹
           £Ô£Å£Ì ¡¥   £°£³¡Ý £³£¹£´£² ¡Ý £±£°£°£°
  £Â¡¥¥¢¥Þ¥Á¥å¥¢ÌµÀþ£Æ£Á£Ø¥µ¡¼¥Ó¥¹
      £Ê£Á£Ò£Ì¤Ë¤è¤ë¤Õ¤¸£³¹æ¤Îµ°Æ»¾ðÊó¡Ê¥ª¡¼¥Ó¥Ã¥È¥«¥ì¥ó¥À¡¼¡Ë
         £Æ£Á£Ø £Î£ï¡¥  £°£³¡Ý £³£²£³£³ ¡Ý£°£°£µ£µ
  £Ã¡¥£×£×£×¥Ö¥é¥¦¥¶¤Ç¾ðÊó¤ò´Êñ¤Ë¸«¤ì¤ë¿Í¤Î¤¿¤á¤Ë£Ê£Á£Ó¡Ý£²
     ¤Õ¤¸£³¹æ¤Î±ÒÀ±¤È¤·¤Æ¤Î±¿ÍѤµ¤ì¤ë¤Þ¤Ç¤Î̾Á°¡Ë¤Î³µÍס¢ÂǤÁ¾å¤²
     ¤Þ¤Ç¤Î¾õ¶·¡¢±¿ÍÑÃæ¤Ë¤ª¤±¤ë¾õ¶·¤òÀâÌÀ¤·¤¿¥Û¡¼¥à¥Ú¡¼¥¸¤ò¾Ò²ð¤·
     ¤Æ¤ª¤¤Þ¤¹¡¥
    ¡ ¼ÒÃÄË¡¿ÍÆüËÜ¥¢¥Þ¥Á¥å¥¢ÌµÀþÏ¢ÌÁ¡Ê£Ê£Á£Ò£Ì¡Ë¤Î¥Û¡¼¥à¥Ú¡¼¥¸
          http://www.jarl.or.jp/Japanese/3_Fuji
 
    ¢ ±§Ã賫ȯ»ö¶ÈÃġʣΣÁ£Ó£Ä£Á¡Ë¥Û¡¼¥à¥Ú¡¼¥¸ 
          http://www.nasda.go.jp/
         ÂǾ夲±ÒÀ±¡¡¡§Ãϵå´Ñ¬¥×¥é¥Ã¥È¥Õ¥©¡¼¥àµ»½Ñ±ÒÀ±¡ÊADEOS¡Ë 
                       ¥¢¥Þ¥Á¥å¥¢±ÒÀ±£³¹æ(JAS-2)
          http://yyy.tksc.nasda.go.jp/Home/Press/Press-j/jas-2_j.html        
  £Ä¡¥£Ê£Á£Í£Ó£Á£Ô¤Ë¤è¤ëµ°Æ»¾ðÊó¤Î³èÍÑ
        JAMSAT¤Î¥Û¡¼¥à¥Ú¡¼¥¸¤Þ¤¿¤Ïjamsat¡Ýkeps¤Îµ°Æ»Í×ÁǤè¤ê
      ±ÒÀ±¤Îµ°Æ»¾ðÊó¤òÆÀ¤ë¡¥
     £Ê£Á£Í£Ó£Á£Ô¥Û¡¼¥à¥Ú¡¼¥¸
               £Õ£Ò£Ì    http://www.jamsat.or.jp
       ¾åµ¥Û¡¼¥à¥Ú¡¼¥¸¤Ç¤Ï³ÆÃϤǹԤï¤ì¤ë¥¢¥Þ¥Á¥å¥¢ÄÌ¿®±ÒÀ±¤Ë´Ø¤¹¤ë
      ¥ß¥å¡¼¥Æ¥£¥ó¥°¤Î¤ªÃΤ餻¤äÀ¤³¦¤Î¥¢¥Þ¥Á¥å¥¢±ÒÀ±¤Ë´Ø¤¹¤ë¾ðÊó¤¬
      ËþºÜ¤µ¤ì¤Æ¤¤¤Þ¤¹¡¥
   
 =========================================================================
       £Ê£Á£Í£Ó£Á£Ô¤Î¥á¥ó¥Ð¡¼¤Î¤´¶¨ÎϤˤè¤ê£Ê£È£¶£Í£Í£Å¡Ê¹â»³ ½¨Â¤¡Ë¤¬
    ¼¹É®¡¦ÊÔ½¸¤òôÅö¤·¤Æ¤ª¤ê¤Þ¤¹¡¥¤´»ØÅ¦¤Î°Õ¸«¡¢µ¿Ìä¤ä¤³¤Î¤è¤¦¤Ë¤·¤¿¤é
    ¤È¤¤¤¦¥¢¥¤¥Ç¥¢¤¬¤¢¤ê¤Þ¤·¤¿¤é¾®¤µ¤Ê¤³¤È¤Ç¤â¤«¤Þ¤¤¤Þ¤»¤ó¤Î¤Çµ¤·Ú¤Ë²¼
    µ¥¢¥É¥ì¥¹¤Þ¤Ç¤´Ï¢Íí¤¯¤À¤µ¤¤¡¥£ê£á£í£ó£á£ô¡Ý£î£å£÷£ó¤«¤é£ê£á£ó£²
    £é£î£æ£ï¤Ø¤ÎžºÜ¤ò£Ê£È£´£Ð£È£×¶Éºä°æ¤µ¤ó¤ËôÅö¤·¤ÆÄº¤¤¤Æ¤ª¤ê¤Þ¤¹¡¥
                    E¡¼mail : jh6mme@jamsat.or.jp : jh4phw@jamsat.or.jp
 ===============================   £Å£Î£Ä  ===============================